TimeEDT,TemperatureF,Dew PointF,Humidity,Sea Level PressureIn,VisibilityMPH,Wind Direction,Wind SpeedMPH,Gust SpeedMPH,PrecipitationIn,Events,Conditions,WindDirDegrees,DateUTC
12:53 AM,75.9,61.0,60,30.06,10.0,ESE,8.1,16.1,N/A,,Mostly Cloudy,120,2012-03-29 04:53:00
1:53 AM,75.9,61.0,60,30.05,10.0,ESE,9.2,17.3,N/A,,Overcast,120,2012-03-29 05:53:00
2:53 AM,75.0,60.1,60,30.03,10.0,ESE,10.4,16.1,N/A,,Mostly Cloudy,110,2012-03-29 06:53:00
3:53 AM,75.0,61.0,62,30.01,10.0,ESE,10.4,17.3,N/A,,Clear,120,2012-03-29 07:53:00
4:53 AM,73.9,60.1,62,30.01,10.0,ESE,9.2,16.1,N/A,,Partly Cloudy,110,2012-03-29 08:53:00
5:53 AM,73.9,59.0,59,30.01,10.0,ESE,9.2,17.3,N/A,,Clear,110,2012-03-29 09:53:00
6:53 AM,73.9,60.1,62,30.02,10.0,ESE,8.1,-,N/A,,Clear,110,2012-03-29 10:53:00
7:53 AM,73.9,60.1,62,30.04,10.0,East,5.8,-,N/A,,Clear,100,2012-03-29 11:53:00
8:53 AM,77.0,61.0,58,30.05,10.0,ESE,8.1,-,N/A,,Clear,110,2012-03-29 12:53:00
9:53 AM,79.0,63.0,58,30.06,10.0,ESE,8.1,-,N/A,,Clear,120,2012-03-29 13:53:00
10:53 AM,80.1,63.0,56,30.07,10.0,ESE,8.1,-,N/A,,Partly Cloudy,110,2012-03-29 14:53:00
11:53 AM,82.0,64.0,54,30.08,10.0,ESE,4.6,-,N/A,,Mostly Cloudy,120,2012-03-29 15:53:00
12:53 PM,82.0,63.0,52,30.06,10.0,East,8.1,-,N/A,,Clear,90,2012-03-29 16:53:00
1:53 PM,82.0,63.0,52,30.04,10.0,Variable,4.6,-,N/A,,Clear,0,2012-03-29 17:53:00
2:53 PM,82.0,64.0,54,30.02,10.0,East,8.1,-,N/A,,Partly Cloudy,100,2012-03-29 18:53:00
3:53 PM,81.0,63.0,54,30.00,10.0,East,8.1,-,N/A,,Clear,100,2012-03-29 19:53:00
4:53 PM,80.1,62.1,54,29.99,10.0,East,10.4,-,N/A,,Clear,90,2012-03-29 20:53:00
5:53 PM,79.0,61.0,54,29.99,10.0,East,11.5,-,N/A,,Clear,80,2012-03-29 21:53:00
6:53 PM,77.0,60.1,56,30.00,10.0,East,10.4,-,N/A,,Clear,80,2012-03-29 22:53:00
7:53 PM,75.9,59.0,56,30.01,10.0,ENE,9.2,-,N/A,,Clear,70,2012-03-29 23:53:00
8:53 PM,75.0,60.1,60,30.01,10.0,East,8.1,-,N/A,,Clear,80,2012-03-30 00:53:00
9:53 PM,75.0,60.1,60,30.03,10.0,East,8.1,-,N/A,,Clear,80,2012-03-30 01:53:00
10:53 PM,75.0,60.1,60,30.02,10.0,East,8.1,-,N/A,,Clear,90,2012-03-30 02:53:00
11:53 PM,73.9,60.1,62,30.03,10.0,East,5.8,-,N/A,,Clear,100,2012-03-30 03:53:00